Time,TemperatureF,DewpointF,PressureIn,WindDirection,WindDirectionDegrees,WindSpeedMPH,WindSpeedGustMPH,Humidity,HourlyPrecipIn,Conditions,Clouds,dailyrainin,SoftwareType,DateUTC
2013-07-08 00:27:00,70.1,67.0,30.30,SSW,211,0.0,0.0,89,0.00,,,0.00,weatherlink.com 1.10,2013-07-08 04:27:00,
2013-07-08 00:45:00,70.5,67.0,30.30,SSW,211,0.0,0.0,89,0.00,,,0.00,weatherlink.com 1.10,2013-07-08 04:45:00,
2013-07-08 01:02:00,71.2,68.0,30.30,SSW,198,0.0,1.0,88,0.00,,,0.00,weatherlink.com 1.10,2013-07-08 05:02:00,
2013-07-08 01:21:00,71.5,68.0,30.30,SSW,200,0.0,0.0,87,0.00,,,0.00,weatherlink.com 1.10,2013-07-08 05:21:00,
2013-07-08 01:38:00,71.7,68.0,30.30,SW,232,0.0,1.0,87,0.00,,,0.00,weatherlink.com 1.10,2013-07-08 05:38:00,
2013-07-08 01:56:00,71.3,68.0,30.30,SW,232,0.0,0.0,88,0.00,,,0.00,weatherlink.com 1.10,2013-07-08 05:56:00,
2013-07-08 02:14:00,71.4,68.0,30.30,SSW,201,0.0,1.0,88,0.00,,,0.00,weatherlink.com 1.10,2013-07-08 06:14:00,
2013-07-08 02:32:00,71.1,68.0,30.29,SSW,198,0.0,1.0,89,0.00,,,0.00,weatherlink.com 1.10,2013-07-08 06:32:00,
2013-07-08 02:49:00,70.9,68.0,30.30,SSW,198,0.0,1.0,89,0.00,,,0.00,weatherlink.com 1.10,2013-07-08 06:49:00,
2013-07-08 03:07:00,70.8,68.0,30.30,SSW,198,2.0,2.0,89,0.00,,,0.00,weatherlink.com 1.10,2013-07-08 07:07:00,
2013-07-08 03:25:00,70.5,68.0,30.29,SSW,195,0.0,0.0,90,0.00,,,0.00,weatherlink.com 1.10,2013-07-08 07:25:00,
2013-07-08 03:42:00,70.4,68.0,30.29,SSW,195,0.0,0.0,91,0.00,,,0.00,weatherlink.com 1.10,2013-07-08 07:42:00,
2013-07-08 04:01:00,70.6,68.0,30.29,SSW,195,0.0,1.0,91,0.00,,,0.00,weatherlink.com 1.10,2013-07-08 08:01:00,
2013-07-08 04:18:00,70.9,68.0,30.29,SSW,195,0.0,0.0,90,0.00,,,0.00,weatherlink.com 1.10,2013-07-08 08:18:00,
2013-07-08 04:37:00,71.0,68.0,30.29,SSW,195,0.0,1.0,90,0.00,,,0.00,weatherlink.com 1.10,2013-07-08 08:37:00,
2013-07-08 04:54:00,70.5,68.0,30.29,SSW,195,0.0,0.0,90,0.00,,,0.00,weatherlink.com 1.10,2013-07-08 08:54:00,
2013-07-08 05:13:00,69.7,67.0,30.28,SSW,197,0.0,0.0,92,0.00,,,0.00,weatherlink.com 1.10,2013-07-08 09:13:00,
2013-07-08 05:30:00,69.2,67.0,30.29,SSW,196,0.0,0.0,93,0.00,,,0.00,weatherlink.com 1.10,2013-07-08 09:30:00,
2013-07-08 05:48:00,68.9,67.0,30.29,SSW,195,0.0,0.0,93,0.00,,,0.00,weatherlink.com 1.10,2013-07-08 09:48:00,
2013-07-08 06:05:00,68.4,67.0,30.29,SSW,195,0.0,0.0,94,0.00,,,0.00,weatherlink.com 1.10,2013-07-08 10:05:00,
2013-07-08 06:24:00,68.1,67.0,30.29,SSW,195,0.0,0.0,95,0.00,,,0.00,weatherlink.com 1.10,2013-07-08 10:24:00,
2013-07-08 06:41:00,67.7,66.0,30.29,SSW,195,0.0,0.0,95,0.00,,,0.00,weatherlink.com 1.10,2013-07-08 10:41:00,
2013-07-08 07:00:00,67.6,66.0,30.30,SSW,195,0.0,0.0,95,0.00,,,0.00,weatherlink.com 1.10,2013-07-08 11:00:00,
2013-07-08 07:17:00,67.9,67.0,30.30,SSW,195,0.0,0.0,96,0.00,,,0.00,weatherlink.com 1.10,2013-07-08 11:17:00,
2013-07-08 07:34:00,68.5,67.0,30.31,SSW,195,0.0,0.0,96,0.00,,,0.00,weatherlink.com 1.10,2013-07-08 11:34:00,
2013-07-08 07:53:00,70.0,69.0,30.32,NE,52,0.0,1.0,95,0.00,,,0.00,weatherlink.com 1.10,2013-07-08 11:53:00,
2013-07-08 08:11:00,73.4,70.0,30.31,South,179,0.0,2.0,89,0.00,,,0.00,weatherlink.com 1.10,2013-07-08 12:11:00,
2013-07-08 08:28:00,75.7,70.0,30.31,SE,146,0.0,4.0,82,0.00,,,0.00,weatherlink.com 1.10,2013-07-08 12:28:00,
2013-07-08 08:46:00,77.3,71.0,30.31,South,191,0.0,3.0,80,0.00,,,0.00,weatherlink.com 1.10,2013-07-08 12:46:00,
2013-07-08 09:03:00,78.4,71.0,30.32,SW,214,0.0,1.0,78,0.00,,,0.00,weatherlink.com 1.10,2013-07-08 13:03:00,
2013-07-08 09:22:00,78.7,71.0,30.32,SSW,205,0.0,4.0,77,0.00,,,0.00,weatherlink.com 1.10,2013-07-08 13:22:00,
2013-07-08 09:39:00,78.9,71.0,30.32,SSE,156,1.0,4.0,76,0.00,,,0.00,weatherlink.com 1.10,2013-07-08 13:39:00,
2013-07-08 09:58:00,79.1,71.0,30.31,WSW,242,0.0,4.0,77,0.00,,,0.00,weatherlink.com 1.10,2013-07-08 13:58:00,
2013-07-08 10:15:00,79.7,72.0,30.32,South,181,0.0,2.0,76,0.00,,,0.00,weatherlink.com 1.10,2013-07-08 14:15:00,
2013-07-08 10:33:00,81.4,72.0,30.33,SSW,203,1.0,7.0,72,0.00,,,0.00,weatherlink.com 1.10,2013-07-08 14:33:00,
2013-07-08 10:51:00,81.8,72.0,30.33,South,188,0.0,3.0,72,0.00,,,0.00,weatherlink.com 1.10,2013-07-08 14:51:00,
2013-07-08 11:09:00,82.5,72.0,30.33,SE,143,2.0,3.0,71,0.00,,,0.00,weatherlink.com 1.10,2013-07-08 15:09:00,
2013-07-08 11:26:00,83.7,74.0,30.33,ESE,120,0.0,2.0,72,0.00,,,0.00,weatherlink.com 1.10,2013-07-08 15:26:00,
2013-07-08 11:44:00,84.5,72.0,30.33,SSW,193,0.0,4.0,66,0.00,,,0.00,weatherlink.com 1.10,2013-07-08 15:44:00,
2013-07-08 12:03:00,86.8,73.0,30.33,SE,138,1.0,5.0,63,0.00,,,0.00,weatherlink.com 1.10,2013-07-08 16:03:00,
2013-07-08 12:19:00,87.3,73.0,30.33,South,171,6.0,6.0,63,0.00,,,0.00,weatherlink.com 1.10,2013-07-08 16:19:00,
2013-07-08 12:38:00,86.9,72.0,30.32,South,186,2.0,3.0,62,0.00,,,0.00,weatherlink.com 1.10,2013-07-08 16:38:00,
2013-07-08 13:30:00,85.0,73.0,30.32,South,177,0.0,2.0,68,0.00,,,0.00,weatherlink.com 1.10,2013-07-08 17:30:00,
2013-07-08 13:48:00,84.0,73.0,30.31,SSW,200,0.0,4.0,70,0.00,,,0.00,weatherlink.com 1.10,2013-07-08 17:48:00,
2013-07-08 15:17:00,84.5,75.0,30.30,NNE,31,1.0,3.0,72,0.00,,,0.00,weatherlink.com 1.10,2013-07-08 19:17:00,
2013-07-08 15:53:00,85.4,75.0,30.28,SW,219,1.0,5.0,71,0.00,,,0.00,weatherlink.com 1.10,2013-07-08 19:53:00,
2013-07-08 16:10:00,86.3,74.0,30.27,ESE,115,2.0,9.0,67,0.00,,,0.00,weatherlink.com 1.10,2013-07-08 20:10:00,
2013-07-08 16:46:00,85.7,73.0,30.25,SSW,203,1.0,6.0,65,0.00,,,0.00,weatherlink.com 1.10,2013-07-08 20:46:00,
2013-07-08 17:04:00,87.0,73.0,30.25,SSW,208,3.0,6.0,63,0.00,,,0.00,weatherlink.com 1.10,2013-07-08 21:04:00,
2013-07-08 17:21:00,88.1,72.0,30.25,South,191,1.0,4.0,59,0.00,,,0.00,weatherlink.com 1.10,2013-07-08 21:21:00,
2013-07-08 19:08:00,86.9,73.0,30.23,ESE,105,2.0,9.0,63,0.00,,,0.00,weatherlink.com 1.10,2013-07-08 23:08:00,
2013-07-08 19:43:00,85.8,74.0,30.24,SW,220,0.0,4.0,68,0.00,,,0.00,weatherlink.com 1.10,2013-07-08 23:43:00,
2013-07-08 20:02:00,85.8,74.0,30.24,South,172,0.0,6.0,67,0.00,,,0.00,weatherlink.com 1.10,2013-07-09 00:02:00,
2013-07-08 20:38:00,83.3,73.0,30.25,SSW,205,0.0,2.0,70,0.00,,,0.00,weatherlink.com 1.10,2013-07-09 00:38:00,
2013-07-08 20:55:00,82.9,73.0,30.25,SW,217,1.0,1.0,71,0.00,,,0.00,weatherlink.com 1.10,2013-07-09 00:55:00,
2013-07-08 21:49:00,81.3,71.0,30.26,SE,127,1.0,4.0,71,0.00,,,0.00,weatherlink.com 1.10,2013-07-09 01:49:00,
2013-07-08 22:06:00,81.1,71.0,30.27,SSW,194,0.0,3.0,72,0.00,,,0.00,weatherlink.com 1.10,2013-07-09 02:06:00,
2013-07-08 22:24:00,80.7,71.0,30.27,SE,134,0.0,1.0,73,0.00,,,0.00,weatherlink.com 1.10,2013-07-09 02:24:00,
2013-07-08 23:00:00,79.9,71.0,30.27,South,184,0.0,1.0,75,0.00,,,0.00,weatherlink.com 1.10,2013-07-09 03:00:00,
2013-07-08 23:17:00,79.6,71.0,30.27,NW,319,1.0,2.0,76,0.00,,,0.00,weatherlink.com 1.10,2013-07-09 03:17:00,
2013-07-08 23:36:00,79.4,71.0,30.27,SSW,199,0.0,3.0,76,0.00,,,0.00,weatherlink.com 1.10,2013-07-09 03:36:00,
2013-07-08 23:53:00,79.1,71.0,30.27,SW,217,0.0,2.0,77,0.00,,,0.00,weatherlink.com 1.10,2013-07-09 03:53:00,